Weather in Dinovtsy

Ukraine / Chernovtci District     48°19′07″N   26°17′41″E
temp.,
°C
wind,
m/s
gust,
m/s
humid.,
%
clouds,
%
prec.,
mm/h
press.,
hPa
HPBL,
m
1 march, mon
mon123:00+3nw81481100 0.3 1027904
02:00+2nw71296100 3.8 1027686
05:00+2nw5997100 1.4 1027465
08:00+2nnw4997100 1.8 1029505
11:00+4nnw5881100 0.7 1031849
14:00+5n577297 0.9 1032977
17:00+5nnw366992 0.1 1033787
20:00+4nw368296 0.1 1034260
2 march, tue
tue223:00+3wnw3687100 0.1 1035188
02:00+1wnw349080 0.1 103682
05:000wnw36891 0.0 1034157
08:00+1wnw39790 0.0 1034323
11:00+6wnw696010 0.0 1031525
14:00+10nw711525 0.0 1029754
17:00+9wnw614560 0.0 1027760
20:00+6nw618730 0.0 1029640
3 march, wed
wed323:00+5nw717720 0.0 1030616
02:00+4nw614810 0.0 1031407
05:00+2wnw410890 0.0 1031278
08:00+2wnw369310 0.0 1032215
11:00+5nw358178 0.0 1031530
14:00+6nw357286 0.0 1030758
17:00+6nw247380 0.0 1028491
20:00+3s118340 0.0 102922
4 march, thu
thu423:00+3s22880 0.0 102722
02:00+2sse23910 0.0 102531
05:00+1sse22890 0.0 102222
08:00+2sw11750 0.0 102122
11:00+8nw22540 0.0 1018270
14:00+12nw24404 0.0 1016760
17:00+11wnw225019 0.0 101441
20:00+7sw126212 0.0 101422
5 march, fri
fri523:00+5sw22660 0.0 101422
02:00+4wsw126612 0.0 101322
05:00+4s226799 0.0 101222
08:00+5ssw3667100 0.0 1011116
11:00+10sw5951100 0.0 1009637
14:00+11wsw3850100 0.0 10081123
17:00+11w61155100 0.0 1008595
20:00+6nw498577 0.1 1011487